DIRECTV 11

Last updated on Tue Oct 08 2024 00:02:38 GMT+0000 (Coordinated Universal Time)

1 32729U 08013A 24281.19887955 -.00000115 00000+0 00000+0 0 9990 2 32729 0.0401 35.1116 0000690 82.5468 231.1124 1.00271540 39393
UTC large
Height (km)
Speed (km/s)
/
Latitude / Longitude
Inclination (degrees)
Orbital Period (minutes)
Azimuth
Elevation
Range (km)
Doppler Factor

Next 0 passes for location: London (51.5072 / 0.1276)

Sorry there are no passes over London.